[[{"header":{"parameterUnit":"m.s-1","parameterCategory":1,"la1":30.2991,"la2":30.254,"lo1":-89.0895,"lo2":-89.0444,"dy":0.0017,"dx":0.0017,"nx":28,"ny":28,"refTime":"2024-06-20T03:00:00:Z","depth":0,"parameterNumber":2,"parameterNumberName":"U-component_of_WINDS"},"data":[0,0,0,0,0,0,0,0,0,0,0,0,0,0,0,0,0,0,0,0,0,0,0,0,0,0,0,0,0,0,0,0,0,0,0,0,0,0,0,0,0,0,0,0,0,0,0,0,0,0,0,0,0,0,0,0,0,0,-5.1913,-5.1914,0,-5.2044,-5.2045,-5.2047,-5.1921,-5.1916,-5.1911,-5.1906,-5.2045,-5.2054,-5.2062,0,0,0,0,0,0,0,0,0,0,0,0,0,-5.156,-5.1567,-5.1913,-5.1915,-5.1916,-5.2044,-5.2045,-5.2047,-5.1922,-5.1916,-5.191,-5.1904,-5.2043,-5.2053,-5.2063,0,0,0,0,0,0,0,0,0,0,0,0,0,-5.1704,-5.1569,-5.1913,-5.1869,-5.1866,-5.2043,-5.2046,-5.2048,-5.1923,-5.1916,-5.1908,-5.1901,-5.2039,-5.2052,-5.2064,-5.2292,0,0,-5.2102,-5.2108,0,0,0,0,0,0,0,0,-5.1696,-5.1718,-5.1874,-5.1872,-5.187,-5.1958,-5.1972,-5.213,-5.1925,-5.1902,-5.1906,-5.1897,-5.2023,-5.2036,-5.2078,-5.2299,-5.2305,-5.2104,-5.2111,-5.2117,-5.212,0,0,0,0,0,0,0,-5.1687,-5.1711,-5.1965,-5.1876,-5.1874,-5.1845,-5.1857,-5.2001,-5.2003,-5.1903,-5.1894,-5.1911,-5.202,-5.2066,-5.208,-5.2307,-5.2103,-5.2114,-5.2122,-5.2127,-5.2725,-5.2733,0,0,0,0,0,0,-5.1681,-5.1704,-5.1961,-5.1969,-5.1762,-5.1857,-5.1871,-5.1938,-5.2001,-5.2004,-5.1918,-5.1905,-5.2048,-5.2065,-5.2084,-5.2357,-5.2116,-5.2128,-5.2135,-5.2716,-5.2726,-5.2735,0,0,0,0,0,0,-5.1673,-5.1705,-5.1955,-5.1834,-5.1864,-5.1871,-5.1947,-5.1944,-5.1989,-5.2012,-5.2012,-5.1963,-5.2043,-5.2067,-5.2242,-5.236,-5.2134,-5.2145,-5.2707,-5.2719,-5.2731,-5.2904,0,0,0,0,0,0,-5.1664,-5.1703,-5.1788,-5.1837,-5.187,-5.2109,-5.1954,-5.1952,-5.2011,-5.1995,-5.2055,-5.2058,-5.2039,-5.2224,-5.2254,-5.2373,-5.2155,-5.2696,-5.2712,-5.2727,-5.2888,-5.2921,-5.2949,0,0,0,0,0,-5.1652,-5.1832,-5.1793,-5.1825,-5.1977,-5.2116,-5.2136,-5.2109,-5.2021,-5.2108,-5.2123,-5.2056,-5.2342,-5.2243,-5.2276,-5.2401,-5.2688,-5.2708,-5.2726,-5.2874,-5.2914,-5.2949,0,0,0,0,0,0,-5.1798,-5.1838,-5.1795,-5.1996,-5.2054,-5.2095,-5.2203,-5.2152,-5.2237,-5.2219,-5.2184,-5.2199,-5.2384,-5.241,-5.2298,-5.2626,-5.2501,-5.2528,-5.2603,-5.2641,-5.2671,-5.2662,-5.2166,0,0,0,0,0,-5.1854,-5.1962,-5.1991,-5.2166,-5.2197,-5.2196,-5.2255,-5.223,-5.2289,-5.2313,-5.234,-5.2402,-5.2505,-5.2575,-5.2671,-5.2891,-5.2903,-5.2994,-5.3024,-5.3049,-5.3073,-5.3193,-5.3234,-5.2797,-5.2797,-5.2797,0,0,-5.197,-5.2005,-5.2076,-5.2197,-5.2238,-5.2353,-5.2217,-5.2344,-5.2429,-5.2332,-5.2499,-5.2522,-5.2588,-5.2787,-5.2876,-5.2815,-5.3196,-5.3073,-5.3093,-5.3103,-5.3217,-5.3258,-5.3295,-5.281,-5.2807,-5.2805,0,0,-5.2241,-5.2277,-5.2428,-5.2473,-5.2537,-5.2535,-5.2572,-5.2621,-5.2632,-5.2799,-5.2729,-5.2832,-5.3011,-5.3061,-5.3111,-5.3403,-5.3346,-5.3436,-5.3597,-5.3714,-5.3749,-5.3779,-5.3885,-5.3924,-5.3459,-5.346,-5.346,0,-5.2377,-5.2546,-5.2512,-5.2644,-5.2701,-5.2617,-5.2771,-5.2817,-5.291,-5.2952,-5.2881,-5.3106,-5.3144,-5.3355,-5.3426,-5.3469,-5.3511,-5.3429,-5.3746,-5.3777,-5.3804,-5.3905,-5.3945,-5.347,-5.3469,-5.3468,-5.3467,0,-5.2712,-5.283,-5.2944,-5.3036,-5.3105,-5.3247,-5.3237,-5.3312,-5.3281,-5.3287,-5.346,-5.3504,-5.3608,-5.3657,-5.3628,-5.3865,-5.3824,-5.3751,-5.3625,-5.3857,-5.3951,-5.399,-5.3485,-5.3482,-5.3478,-5.3476,0,0,-5.3077,-5.3149,-5.3192,-5.3233,-5.33,-5.3391,-5.3531,-5.3633,-5.3698,-5.3766,-5.3884,-5.4039,-5.3972,-5.4028,-5.4004,-5.4108,-5.4339,-5.4022,-5.4023,-5.408,-5.4605,-5.466,-5.4705,-5.4301,-5.4309,-5.4314,-5.46,0,-5.335,-5.3591,-5.3566,-5.3797,-5.3907,-5.3831,-5.3953,-5.4008,-5.4019,-5.4115,-5.4127,-5.4238,-5.414,-5.4174,-5.4273,-5.429,-5.4444,-5.4269,-5.4413,-5.4418,-5.4399,-5.4754,-5.4812,-5.5079,-5.4636,-5.4642,-5.4647,0,-5.3701,-5.3781,-5.4022,-5.4073,-5.4119,-5.4229,-5.4321,-5.4413,-5.4476,-5.4476,-5.454,-5.45,-5.4643,-5.4514,-5.4712,-5.4594,-5.4651,-5.4669,-5.4679,-5.4691,-5.4547,-5.4778,-5.5164,-5.5204,-5.4704,-5.47,-5.4695,0,-5.3945,-5.4113,-5.4279,-5.4317,-5.4381,-5.446,-5.4491,-5.4545,-5.4609,-5.469,-5.4731,-5.4829,-5.4883,-5.4961,-5.4949,-5.4856,-5.5152,-5.5021,-5.5159,-5.5159,-5.5224,-5.522,-5.5626,-5.5261,-5.526,-5.526,-5.5259,0,-5.4253,-5.4404,-5.439,-5.4493,-5.466,-5.4631,-5.4799,-5.482,-5.487,-5.4977,-5.4918,-5.502,-5.4997,-5.51,-5.5092,-5.5258,-5.5283,-5.5289,-5.5285,-5.5295,-5.5294,-5.5332,-5.5313,-5.527,-5.5268,-5.5266,-5.5264,0,-5.4553,-5.455,-5.4727,-5.4773,-5.4788,-5.491,-5.495,-5.5048,-5.5054,-5.5191,-5.5221,-5.5232,-5.535,-5.5345,-5.5479,-5.5474,-5.5679,-5.5653,-5.5658,-5.5653,-5.579,-5.5778,-5.6235,-5.6294,-5.589,-5.5894,-5.5897,0,-5.475,-5.4865,-5.4923,-5.499,-5.5026,-5.5134,-5.5198,-5.5176,-5.5245,-5.5326,-5.5416,-5.5527,-5.5615,-5.5808,-5.5829,-5.5932,-5.5909,-5.6062,-5.5924,-5.593,-5.5912,-5.5906,-5.5918,-5.6089,-5.6094,-5.6097,-5.61,0,-5.5101,-5.5094,-5.5188,-5.5283,-5.5362,-5.5436,-5.5503,-5.5562,-5.5547,-5.5629,-5.5748,-5.5816,-5.5953,-5.6066,-5.6165,-5.6199,-5.6149,-5.6144,-5.6181,-5.6192,-5.619,-5.6194,-5.5732,-5.6133,-5.613,-5.6128,-5.6126,-5.6125,-5.5356,-5.5454,-5.5512,-5.5619,-5.5668,-5.5733,-5.5828,-5.5846,-5.5945,-5.6053,-5.6034,-5.6169,-5.623,-5.6358,-5.6401,-5.6507,-5.6453,-5.6507,-5.6521,-5.6534,-5.655,-5.6173,-5.6525,-5.6524,-5.6523,-5.6522,-5.6522,0,-5.5704,-5.5737,-5.5836,-5.5933,-5.6019,-5.5963,-5.6036,-5.6112,-5.623,-5.6291,-5.6379,-5.6518,-5.6627,-5.6658,-5.6764,-5.6844,-5.6824,-5.6873,-5.6867,-5.6876,-5.6592,-5.6549,-5.6887,-5.6887,-5.6887,-5.6887,-5.6887,-5.6887,-5.5895,-5.6059,-5.606,-5.6249,-5.6281,-5.6411,-5.6458,-5.6519,-5.6567,-5.6724,-5.6815,-5.6833,-5.6883,-5.6993,-5.7092,-5.7099,-5.7141,-5.72,-5.7197,-5.6932,-5.6895,-5.686,-5.682,-5.7209,-5.721,-5.7472,-5.7474,-5.7476]},{"header":{"parameterUnit":"m.s-1","parameterCategory":1,"la1":30.2991,"la2":30.254,"lo1":-89.0895,"lo2":-89.0444,"dy":0.0017,"dx":0.0017,"nx":28,"ny":28,"refTime":"2024-06-20T03:00:00:Z","depth":0,"parameterNumber":3,"parameterNumberName":"V-component_of_WINDS"},"data":[0,0,0,0,0,0,0,0,0,0,0,0,0,0,0,0,0,0,0,0,0,0,0,0,0,0,0,0,0,0,0,0,0,0,0,0,0,0,0,0,0,0,0,0,0,0,0,0,0,0,0,0,0,0,0,0,0,0,-1.7839,-1.7837,0,-1.7735,-1.7734,-1.7732,-1.767,-1.767,-1.767,-1.767,-1.7558,-1.7556,-1.7553,0,0,0,0,0,0,0,0,0,0,0,0,0,-1.7977,-1.7974,-1.7839,-1.7837,-1.7836,-1.7735,-1.7734,-1.7732,-1.767,-1.767,-1.767,-1.7669,-1.7559,-1.7556,-1.7553,0,0,0,0,0,0,0,0,0,0,0,0,0,-1.7899,-1.7974,-1.7839,-1.7793,-1.7788,-1.7735,-1.7734,-1.7732,-1.7671,-1.767,-1.767,-1.7669,-1.756,-1.7556,-1.7552,-1.7535,0,0,-1.754,-1.7538,0,0,0,0,0,0,0,0,-1.7904,-1.7894,-1.7801,-1.7796,-1.779,-1.7715,-1.7741,-1.7666,-1.7671,-1.7715,-1.767,-1.7669,-1.761,-1.7602,-1.7583,-1.753,-1.7525,-1.7539,-1.7537,-1.7535,-1.7534,0,0,0,0,0,0,0,-1.7909,-1.7898,-1.7797,-1.78,-1.7793,-1.7776,-1.7764,-1.7727,-1.7666,-1.7711,-1.7706,-1.7695,-1.7607,-1.7588,-1.758,-1.7524,-1.754,-1.7536,-1.7533,-1.7532,-1.7447,-1.7447,0,0,0,0,0,0,-1.7923,-1.7903,-1.7801,-1.7794,-1.7847,-1.7774,-1.7761,-1.774,-1.7666,-1.7655,-1.7696,-1.7693,-1.7595,-1.7585,-1.7576,-1.7549,-1.7535,-1.7531,-1.7529,-1.7447,-1.7447,-1.7447,0,0,0,0,0,0,-1.7926,-1.7914,-1.7805,-1.7847,-1.7832,-1.7772,-1.7748,-1.7738,-1.7718,-1.7655,-1.7643,-1.7687,-1.7594,-1.7582,-1.7545,-1.7545,-1.753,-1.7526,-1.7447,-1.7447,-1.7447,-1.7497,0,0,0,0,0,0,-1.793,-1.7916,-1.791,-1.7848,-1.783,-1.7778,-1.7749,-1.7736,-1.7712,-1.7707,-1.7644,-1.7633,-1.7593,-1.7552,-1.7541,-1.7539,-1.7523,-1.7446,-1.7447,-1.7447,-1.7495,-1.7499,-1.7503,0,0,0,0,0,-1.7935,-1.7928,-1.791,-1.7898,-1.7823,-1.7778,-1.7768,-1.7724,-1.7712,-1.7705,-1.7664,-1.7635,-1.7547,-1.7549,-1.7536,-1.7533,-1.7446,-1.7447,-1.7447,-1.7494,-1.7499,-1.7503,0,0,0,0,0,0,-1.7991,-1.7919,-1.7899,-1.7872,-1.7832,-1.7768,-1.7758,-1.7731,-1.7692,-1.7689,-1.7634,-1.762,-1.7588,-1.7557,-1.756,-1.751,-1.7493,-1.7491,-1.7533,-1.7537,-1.754,-1.7548,-1.7519,0,0,0,0,0,-1.8,-1.7972,-1.791,-1.7892,-1.7873,-1.7819,-1.7798,-1.7768,-1.7723,-1.7706,-1.7662,-1.7618,-1.758,-1.7557,-1.7519,-1.749,-1.7474,-1.7481,-1.7485,-1.7488,-1.7487,-1.7467,-1.7469,-1.7449,-1.7449,-1.7449,0,0,-1.8019,-1.7976,-1.7962,-1.7902,-1.7868,-1.7838,-1.7805,-1.7775,-1.7752,-1.77,-1.7663,-1.763,-1.7577,-1.7544,-1.7527,-1.7517,-1.7489,-1.7489,-1.7492,-1.7489,-1.7467,-1.7469,-1.7471,-1.7449,-1.7449,-1.7449,0,0,-1.8037,-1.8003,-1.7984,-1.7949,-1.7898,-1.7861,-1.7857,-1.7797,-1.7772,-1.7735,-1.7695,-1.7664,-1.7601,-1.7565,-1.7538,-1.754,-1.7511,-1.7529,-1.7547,-1.7528,-1.753,-1.7531,-1.753,-1.753,-1.7528,-1.7528,-1.7528,0,-1.8067,-1.8022,-1.7976,-1.7948,-1.7922,-1.7875,-1.7853,-1.7822,-1.7759,-1.7741,-1.7731,-1.7649,-1.761,-1.7567,-1.7567,-1.7548,-1.7538,-1.7536,-1.7534,-1.7534,-1.7535,-1.7533,-1.7533,-1.753,-1.753,-1.753,-1.753,0,-1.8059,-1.8029,-1.8018,-1.7961,-1.7933,-1.7909,-1.7857,-1.7834,-1.7805,-1.7769,-1.7729,-1.7681,-1.7631,-1.7618,-1.759,-1.757,-1.7565,-1.7545,-1.7526,-1.754,-1.7537,-1.7536,-1.7534,-1.7533,-1.7532,-1.7532,0,0,-1.8111,-1.8028,-1.8025,-1.7997,-1.7935,-1.7909,-1.7881,-1.7834,-1.7814,-1.7772,-1.7745,-1.7691,-1.7672,-1.7641,-1.7608,-1.7591,-1.7593,-1.7573,-1.757,-1.7577,-1.7566,-1.7581,-1.7581,-1.7573,-1.7573,-1.7573,-1.7569,0,-1.812,-1.8069,-1.8026,-1.7989,-1.7959,-1.7913,-1.7887,-1.7845,-1.781,-1.7777,-1.7737,-1.77,-1.7678,-1.7659,-1.764,-1.7597,-1.759,-1.7597,-1.7545,-1.7544,-1.756,-1.758,-1.7596,-1.7595,-1.7568,-1.7568,-1.7568,0,-1.8123,-1.8084,-1.8045,-1.7985,-1.797,-1.7949,-1.79,-1.787,-1.782,-1.7796,-1.7761,-1.7726,-1.769,-1.7675,-1.7624,-1.7629,-1.7605,-1.7581,-1.7579,-1.7572,-1.7557,-1.7572,-1.7594,-1.7593,-1.7566,-1.7566,-1.7566,0,-1.8163,-1.81,-1.8068,-1.8046,-1.7976,-1.7961,-1.793,-1.788,-1.7854,-1.781,-1.7792,-1.7745,-1.7719,-1.7682,-1.7634,-1.7627,-1.7587,-1.7568,-1.7563,-1.7564,-1.7557,-1.7558,-1.7574,-1.7543,-1.7543,-1.7543,-1.7543,0,-1.8176,-1.8154,-1.8085,-1.8066,-1.8038,-1.7987,-1.7961,-1.7926,-1.7881,-1.7852,-1.7808,-1.7781,-1.7719,-1.7683,-1.7645,-1.7607,-1.7596,-1.7573,-1.7563,-1.7577,-1.758,-1.756,-1.7558,-1.7543,-1.7543,-1.7543,-1.7543,0,-1.8216,-1.817,-1.8132,-1.8068,-1.8051,-1.8033,-1.7977,-1.7954,-1.7916,-1.7879,-1.7868,-1.7807,-1.7763,-1.7711,-1.7649,-1.7623,-1.7588,-1.7574,-1.7606,-1.76,-1.7597,-1.7598,-1.7601,-1.7598,-1.7571,-1.7571,-1.7571,0,-1.8228,-1.821,-1.8144,-1.8122,-1.8093,-1.8058,-1.803,-1.7979,-1.7952,-1.7892,-1.7876,-1.7829,-1.7788,-1.7719,-1.7668,-1.762,-1.7603,-1.7608,-1.7596,-1.7609,-1.7601,-1.7603,-1.76,-1.7611,-1.7611,-1.7612,-1.7612,0,-1.8252,-1.823,-1.8193,-1.8148,-1.8117,-1.8079,-1.8038,-1.8022,-1.7961,-1.7932,-1.7887,-1.7856,-1.7793,-1.7745,-1.769,-1.7655,-1.7623,-1.7616,-1.7612,-1.7626,-1.7645,-1.7633,-1.7614,-1.7617,-1.7616,-1.7616,-1.7616,-1.7615,-1.8277,-1.8258,-1.8208,-1.8168,-1.8132,-1.8095,-1.807,-1.8029,-1.7992,-1.7938,-1.7908,-1.7863,-1.781,-1.7734,-1.77,-1.7662,-1.7651,-1.7646,-1.7644,-1.7643,-1.7646,-1.7651,-1.7652,-1.7651,-1.7651,-1.7651,-1.7651,0,-1.8298,-1.8264,-1.8228,-1.8173,-1.814,-1.8114,-1.8067,-1.8041,-1.8003,-1.7957,-1.7918,-1.7865,-1.7818,-1.7763,-1.7712,-1.7691,-1.7675,-1.768,-1.768,-1.7672,-1.766,-1.7668,-1.7694,-1.7694,-1.7694,-1.7694,-1.7694,-1.7694,-1.8305,-1.8271,-1.8242,-1.8189,-1.8153,-1.811,-1.8085,-1.8049,-1.8013,-1.7956,-1.7917,-1.7882,-1.7832,-1.7776,-1.7731,-1.7716,-1.7698,-1.7707,-1.7687,-1.7677,-1.7673,-1.767,-1.7677,-1.7704,-1.7704,-1.7702,-1.7702,-1.7702]}]]